Location: Errabaliem
(16.8108°N, 80.4255°E)
Time: 13:54:02
(UTC+00:00)

GPS 2-12 Rocket1 - Pass Details

Date: 05 August 2024
Orbit: 572 x 630 km, 20.0° (Epoch: 12 September)

Event Time Altitude Azimuth Distance (km) Brightness Sun altitude
Rises 13:54:29 0° 277° (W) 2,903 8.3 -11.1°
Reaches altitude 10° 13:56:53 10° 281° (WNW) 1,998 7.1 -11.7°
Maximum altitude 14:01:30 57° 0° (N) 737 3.5 -12.7°
Enters shadow 14:05:18 15° 77° (ENE) 1,694 4.8 -13.5°
